When you browse on this site, cookies collect data to enhance your experience and personalize the content and advertising you see.
Visit our Privacy Policy to learn more. By continuing to use the site, you agree to this use of cookies and data.

Previsão horária em Lykovschina

Hoje, 4 Julho, Sábado

Tempo Temperatura Precipitação Vento Pressão Humidade
00:00 +20°C° 0 mm 1 m/s 748 mmHg 92%
01:00 +20°C° 0 mm 1 m/s 748 mmHg 92%
02:00 +20°C° 0 mm 1 m/s 748 mmHg 92%
03:00 +19°C° 0 mm 2 m/s 748 mmHg 89%
04:00 +20°C° 0 mm 2 m/s 748 mmHg 88%
05:00 +20°C° 0 mm 2 m/s 748 mmHg 88%
06:00 +21°C° 0 mm 2 m/s 748 mmHg 87%
07:00 +24°C° 0 mm 2 m/s 748 mmHg 83%
08:00 +25°C° 0 mm 3 m/s 748 mmHg 79%
09:00 +26°C° 0 mm 3 m/s 748 mmHg 74%
10:00 +27°C° 0 mm 4 m/s 748 mmHg 70%
11:00 +28°C° 0 mm 4 m/s 747 mmHg 67%
12:00 +29°C° 0 mm 4 m/s 747 mmHg 63%
13:00 +30°C° 0.2 mm 4 m/s 747 mmHg 63%
14:00 +30°C° 0.2 mm 4 m/s 747 mmHg 63%
15:00 +30°C° 0.2 mm 4 m/s 747 mmHg 64%
16:00 +29°C° 0.6 mm 4 m/s 746 mmHg 69%
17:00 +28°C° 0.6 mm 3 m/s 746 mmHg 74%
18:00 +27°C° 0.6 mm 3 m/s 746 mmHg 79%
19:00 +26°C° 0.1 mm 3 m/s 746 mmHg 81%
20:00 +25°C° 0.1 mm 3 m/s 746 mmHg 83%
21:00 +24°C° 0.1 mm 2 m/s 746 mmHg 85%
22:00 +23°C° 1.2 mm 2 m/s 746 mmHg 84%
23:00 +23°C° 1.2 mm 2 m/s 746 mmHg 84%

Amanhã, 5 Julho, Domingo

Tempo Temperatura Precipitação Vento Pressão Humidade
00:00 +21°C° 1.2 mm 2 m/s 745 mmHg 84%
01:00 +20°C° 0.8 mm 2 m/s 745 mmHg 86%
02:00 +20°C° 0.8 mm 2 m/s 745 mmHg 89%
03:00 +19°C° 0.8 mm 2 m/s 745 mmHg 91%
04:00 +20°C° 0.3 mm 2 m/s 745 mmHg 90%
05:00 +20°C° 0.3 mm 2 m/s 745 mmHg 90%
06:00 +21°C° 0.3 mm 2 m/s 745 mmHg 89%
07:00 +23°C° 0 mm 2 m/s 745 mmHg 85%
08:00 +25°C° 0 mm 2 m/s 745 mmHg 82%
09:00 +26°C° 0 mm 2 m/s 745 mmHg 78%
10:00 +27°C° 0 mm 3 m/s 745 mmHg 74%
11:00 +28°C° 0 mm 3 m/s 745 mmHg 71%
12:00 +29°C° 0 mm 3 m/s 745 mmHg 68%
13:00 +29°C° 0.7 mm 4 m/s 745 mmHg 69%
14:00 +29°C° 0.7 mm 5 m/s 745 mmHg 70%
15:00 +29°C° 0.7 mm 6 m/s 745 mmHg 72%
16:00 +27°C° 0.5 mm 4 m/s 745 mmHg 75%
17:00 +26°C° 0.5 mm 3 m/s 745 mmHg 79%
18:00 +25°C° 0.5 mm 1 m/s 745 mmHg 83%
19:00 +24°C° 0 mm 1 m/s 744 mmHg 83%
20:00 +24°C° 0 mm 1 m/s 744 mmHg 84%
21:00 +23°C° 0 mm 1 m/s 744 mmHg 84%
22:00 +22°C° 0 mm 1 m/s 744 mmHg 86%
23:00 +22°C° 0 mm 1 m/s 744 mmHg 87%

Depois de amanhã, 6 Julho, Segunda-feira

Tempo Temperatura Precipitação Vento Pressão Humidade
00:00 +21°C° 0 mm 1 m/s 744 mmHg 88%
01:00 +21°C° 0.1 mm 1 m/s 744 mmHg 89%
02:00 +21°C° 0.1 mm 1 m/s 744 mmHg 90%
03:00 +21°C° 0.1 mm 1 m/s 744 mmHg 91%
04:00 +21°C° 0 mm 1 m/s 744 mmHg 90%
05:00 +22°C° 0 mm 1 m/s 744 mmHg 89%
06:00 +23°C° 0 mm 1 m/s 744 mmHg 88%
07:00 +24°C° 0 mm 1 m/s 744 mmHg 84%
08:00 +26°C° 0 mm 2 m/s 745 mmHg 79%
09:00 +27°C° 0 mm 2 m/s 745 mmHg 74%
10:00 +28°C° 0.1 mm 2 m/s 745 mmHg 71%
11:00 +29°C° 0.1 mm 3 m/s 745 mmHg 67%
12:00 +30°C° 0.1 mm 3 m/s 745 mmHg 64%
13:00 +30°C° 0.3 mm 3 m/s 745 mmHg 63%
14:00 +30°C° 0.3 mm 3 m/s 745 mmHg 62%
15:00 +30°C° 0.3 mm 3 m/s 745 mmHg 62%
16:00 +30°C° 0 mm 3 m/s 745 mmHg 64%
17:00 +30°C° 0 mm 2 m/s 745 mmHg 67%
18:00 +30°C° 0 mm 2 m/s 745 mmHg 69%
19:00 +28°C° 0 mm 1 m/s 745 mmHg 71%
20:00 +26°C° 0 mm 1 m/s 745 mmHg 73%
21:00 +22°C° 0 mm 0 m/s 745 mmHg 75%
22:00 +24°C° 0 mm 1 m/s 745 mmHg 76%
23:00 +23°C° 0 mm 1 m/s 745 mmHg 77%

7 Julho, Terça-feira

Tempo Temperatura Precipitação Vento Pressão Humidade
00:00 +23°C° 0 mm 1 m/s 745 mmHg 77%
01:00 +22°C° 0 mm 1 m/s 745 mmHg 79%
02:00 +22°C° 0 mm 1 m/s 745 mmHg 81%
03:00 +21°C° 0 mm 2 m/s 745 mmHg 83%
04:00 +21°C° 0 mm 2 m/s 746 mmHg 82%
05:00 +23°C° 0 mm 2 m/s 746 mmHg 82%
06:00 +24°C° 0 mm 2 m/s 746 mmHg 82%
07:00 +25°C° 0 mm 2 m/s 746 mmHg 78%
08:00 +27°C° 0 mm 3 m/s 746 mmHg 75%
09:00 +28°C° 0 mm 3 m/s 746 mmHg 71%
10:00 +29°C° 0 mm 3 m/s 746 mmHg 67%
11:00 +30°C° 0 mm 3 m/s 746 mmHg 62%
12:00 +33°C° 0 mm 4 m/s 746 mmHg 58%
13:00 +33°C° 0 mm 3 m/s 746 mmHg 56%
14:00 +33°C° 0 mm 3 m/s 746 mmHg 54%
15:00 +34°C° 0 mm 3 m/s 745 mmHg 53%
16:00 +33°C° 0 mm 3 m/s 745 mmHg 57%
17:00 +33°C° 0 mm 3 m/s 745 mmHg 61%
18:00 +31°C° 0 mm 2 m/s 745 mmHg 66%
19:00 +29°C° 0 mm 2 m/s 745 mmHg 68%
20:00 +27°C° 0 mm 2 m/s 745 mmHg 70%
21:00 +25°C° 0 mm 2 m/s 745 mmHg 73%
22:00 +25°C° 0 mm 2 m/s 746 mmHg 74%
23:00 +24°C° 0 mm 2 m/s 746 mmHg 75%

8 Julho, Quarta-feira

Tempo Temperatura Precipitação Vento Pressão Humidade
00:00 +23°C° 0 mm 2 m/s 746 mmHg 76%
01:00 +23°C° 0 mm 2 m/s 746 mmHg 79%
02:00 +21°C° 0 mm 2 m/s 746 mmHg 81%
03:00 +21°C° 0 mm 2 m/s 746 mmHg 84%
04:00 +21°C° 0 mm 2 m/s 746 mmHg 84%
05:00 +23°C° 0 mm 2 m/s 746 mmHg 83%
06:00 +24°C° 0 mm 3 m/s 746 mmHg 83%
07:00 +25°C° 0 mm 3 m/s 746 mmHg 79%
08:00 +27°C° 0 mm 4 m/s 745 mmHg 75%
09:00 +28°C° 0 mm 4 m/s 745 mmHg 71%
10:00 +29°C° 0 mm 5 m/s 745 mmHg 68%
11:00 +30°C° 0 mm 5 m/s 745 mmHg 66%
12:00 +30°C° 0 mm 5 m/s 745 mmHg 63%
13:00 +30°C° 0.2 mm 5 m/s 745 mmHg 63%
14:00 +30°C° 0.2 mm 5 m/s 744 mmHg 64%
15:00 +30°C° 0.2 mm 5 m/s 744 mmHg 64%
16:00 +30°C° 0.1 mm 5 m/s 744 mmHg 68%
17:00 +29°C° 0.1 mm 4 m/s 744 mmHg 71%
18:00 +29°C° 0.1 mm 4 m/s 743 mmHg 75%
19:00 +28°C° 0 mm 4 m/s 743 mmHg 77%
20:00 +26°C° 0 mm 4 m/s 743 mmHg 78%
21:00 +25°C° 0 mm 4 m/s 743 mmHg 80%
22:00 +25°C° 0 mm 4 m/s 743 mmHg 79%
23:00 +23°C° 0 mm 5 m/s 743 mmHg 78%

9 Julho, Quinta-feira

Tempo Temperatura Precipitação Vento Pressão Humidade
00:00 +23°C° 0 mm 5 m/s 742 mmHg 77%
01:00 +23°C° 0 mm 5 m/s 742 mmHg 76%
02:00 +23°C° 0 mm 5 m/s 742 mmHg 75%
03:00 +22°C° 0 mm 5 m/s 741 mmHg 74%
04:00 +22°C° 0 mm 5 m/s 741 mmHg 76%
05:00 +22°C° 0 mm 5 m/s 741 mmHg 77%
06:00 +23°C° 0 mm 5 m/s 741 mmHg 79%
07:00 +25°C° 0 mm 5 m/s 741 mmHg 76%
08:00 +26°C° 0 mm 5 m/s 741 mmHg 72%
09:00 +28°C° 0 mm 6 m/s 741 mmHg 69%
10:00 +29°C° 0 mm 6 m/s 741 mmHg 65%
11:00 +30°C° 0 mm 6 m/s 741 mmHg 61%
12:00 +33°C° 0 mm 6 m/s 741 mmHg 57%
13:00 +32°C° 0 mm 5 m/s 740 mmHg 60%
14:00 +30°C° 0 mm 5 m/s 740 mmHg 63%
15:00 +29°C° 0 mm 4 m/s 740 mmHg 67%
16:00 +29°C° 0 mm 3 m/s 740 mmHg 67%
17:00 +29°C° 0 mm 3 m/s 740 mmHg 67%
18:00 +29°C° 0 mm 2 m/s 740 mmHg 67%
19:00 +27°C° 0.3 mm 3 m/s 740 mmHg 71%
20:00 +26°C° 0.3 mm 3 m/s 741 mmHg 74%
21:00 +23°C° 0.3 mm 4 m/s 741 mmHg 77%
22:00 +22°C° 0.2 mm 3 m/s 741 mmHg 81%
23:00 +21°C° 0.2 mm 2 m/s 741 mmHg 84%
Mostrar mais